Regional Weather Roundup
Issued by NWS

Home | Current Version | Previous Version | Graphics & Text | Print | Product List | Glossary On
Versions: 1 2 3 4 5 6 7 8 9 10 11 12 13 14 15 16 17 18 19 20 21 22 23 24 25 26 27 28 29 30 31 32 33 34 35 36 37 38 39 40 41 42 43 44 45 46 47 48 49 50
000
ASUS43 KFSD 280710
RWRSD

WEATHER ROUNDUP FOR SOUTH DAKOTA
NATIONAL WEATHER SERVICE SIOUX FALLS SD
200 AM CDT FRI APR 28 2017

NOTE: "FAIR" INDICATES FEW OR NO CLOUDS BELOW 12,000 FEET WITH NO
SIGNIFICANT WEATHER AND/OR OBSTRUCTIONS TO VISIBILITY.


SDZ001>005-009-010-012>017-280800-
NORTHWEST AND NORTH CENTRAL SOUTH DAKOTA

CITY           SKY/WX    TMP DP  RH WIND       PRES   REMARKS
BUFFALO          N/A     34  26  72 E12       29.73R WCI  25
FAITH            N/A     31  28  89 NE8       29.80S WCI  23
MOBRIDGE       CLEAR     37  24  59 NE14      29.82R
$$

SDZ012>016-024>037-041>051-057-063-072>074-280800-
SOUTHWEST AND SOUTH CENTRAL SOUTH DAKOTA

CITY           SKY/WX    TMP DP  RH WIND       PRES   REMARKS
RAPID CTY ARPT CLOUDY    38  31  76 E5        29.76S
PIERRE         CLEAR     30  26  85 NE8       29.80S WCI  22
CUSTER         LGT SNOW  29  26  89 NE13      29.68S VSB 3/4 WCI  19
ELLSWORTH AFB  CLOUDY    39  32  75 E6        29.76
PHILIP         CLOUDY    36  33  89 E8        29.78R
PINE RIDGE     LGT RAIN  40  39  97 E16       29.69S
SPEARFISH      CLOUDY    37  32  81 E8        29.75S
WINNER         FAIR      37  30  75 E9        29.79R
$$

SDZ004>011-016>023-039-040-280800-
NORTHEAST SOUTH DAKOTA

CITY           SKY/WX    TMP DP  RH WIND       PRES   REMARKS
ABERDEEN       CLEAR     32  26  78 S3        29.87R
WATERTOWN      PTCLDY    31  27  85 W7        29.83R WCI  24
SISSETON         N/A     32  30  92 NW9       29.84R WCI  24
$$

SDZ017-020-022-023-036>040-048>070-280800-
SOUTHEAST SOUTH DAKOTA

CITY           SKY/WX    TMP DP  RH WIND       PRES   REMARKS
SIOUX FALLS    CLEAR     31  27  85 E5        29.85S WCI  26
HURON          CLEAR     32  27  81 S7        29.84S WCI  26
CHAMBERLAIN    CLOUDY    35  31  84 NE6       29.81S
MITCHELL       CLEAR     33  28  81 SE7       29.85R WCI  27
YANKTON        CLEAR     36  28  75 NE14      29.84R
$$

ABBREVIATIONS USED IN REMARKS
   TC - TEMPERATURE IN CELSIUS
  WCI - WIND CHILL INDEX
   HX - HEAT INDEX
  VSB - VISIBILITY





USA.gov is the U.S. government's official web portal to all federal, state and local government web resources and services.